LU3HGB-WX Weather Reports


time (UTC)temp
F
wind
direction
speed
knots
gust
knots
rain 1hr
in
rain 24hr
in
rain mn
in
humidity
%
barometer
mb
20260507161740 58 0 3.5 8.7 0.00 0.00 0.03 24 1013.0
20260507161239 58 357 7.8 13.9 0.00 0.00 0.03 23 1013.0
20260507160739 58 19 4.3 13.0 0.00 0.00 0.03 24 1013.0
20260507160245 57 12 2.6 7.8 0.00 0.00 0.03 25 1013.0
20260507155739 57 357 5.2 11.3 0.00 0.00 0.03 25 1014.0
20260507155239 57 355 5.2 9.6 0.00 0.00 0.03 25 1014.0
20260507154741 56 335 3.5 7.0 0.00 0.00 0.03 27 1014.0
20260507154240 56 2 7.8 12.2 0.00 0.00 0.03 25 1014.0
20260507153739 57 5 8.7 12.2 0.00 0.00 0.03 26 1014.0
20260507153241 57 2 4.3 10.4 0.00 0.00 0.03 27 1014.0
20260507152739 56 7 2.6 5.2 0.00 0.00 0.03 29 1013.0
20260507152240 56 356 6.1 10.4 0.00 0.00 0.03 27 1013.0
20260507151739 56 5 7.8 13.0 0.00 0.00 0.03 27 1013.0
20260507151239 55 350 7.0 9.6 0.00 0.00 0.03 26 1013.0
20260507150739 55 352 10.4 14.8 0.00 0.00 0.03 25 1013.0
20260507150240 55 355 7.8 11.3 0.00 0.00 0.03 25 1013.0
20260507145741 55 358 7.8 12.2 0.00 0.00 0.03 25 1013.0
20260507145239 55 356 7.0 11.3 0.00 0.00 0.03 25 1013.0
20260507144739 55 17 4.3 7.8 0.00 0.00 0.03 26 1013.0
20260507144239 55 2 3.5 7.0 0.00 0.00 0.03 26 1013.0
20260507143740 55 356 6.1 12.2 0.00 0.00 0.03 24 1013.0
20260507143240 55 3 5.2 7.8 0.00 0.00 0.03 25 1013.0
20260507142741 56 35 5.2 14.8 0.00 0.00 0.03 23 1013.0
20260507142239 56 1 7.8 13.0 0.00 0.00 0.03 22 1013.0
20260507141739 56 15 5.2 7.8 0.00 0.00 0.03 23 1012.0
20260507141240 56 21 5.2 8.7 0.00 0.00 0.03 21 1012.0
20260507140741 56 26 4.3 8.7 0.00 0.00 0.03 22 1012.0
20260507140239 56 2 4.3 7.8 0.00 0.00 0.03 22 1012.0
20260507135740 56 21 6.1 12.2 0.00 0.00 0.03 23 1012.0
20260507135239 56 358 5.2 11.3 0.00 0.00 0.03 22 1012.0
20260507134739 56 4 7.0 13.0 0.00 0.00 0.03 20 1012.0
20260507134239 56 12 6.1 13.0 0.00 0.00 0.03 21 1012.0
20260507133740 55 5 5.2 9.6 0.00 0.00 0.03 21 1012.0
20260507133239 55 8 7.0 10.4 0.00 0.00 0.03 20 1012.0
20260507132740 55 2 2.6 8.7 0.00 0.00 0.03 22 1012.0
20260507132240 55 19 4.3 7.8 0.00 0.00 0.03 21 1012.0
20260507131740 54 23 5.2 10.4 0.00 0.00 0.03 20 1012.0
20260507131240 54 18 3.5 9.6 0.00 0.00 0.03 22 1011.0
20260507130258 54 8 5.2 10.4 0.00 0.00 0.03 21 1011.0
20260507125740 54 23 5.2 10.4 0.00 0.00 0.03 21 1011.0
20260507125241 55 1 7.0 12.2 0.00 0.00 0.03 21 1011.0
20260507124740 55 15 6.1 8.7 0.00 0.00 0.03 21 1012.0
20260507124239 54 12 4.3 8.7 0.00 0.00 0.03 23 1011.0
20260507123740 55 350 5.2 7.8 0.00 0.00 0.03 24 1011.0
20260507123239 55 5 3.5 6.1 0.00 0.00 0.03 26 1011.0
20260507122739 55 6 4.3 10.4 0.00 0.00 0.03 27 1011.0
20260507122239 56 355 6.1 8.7 0.00 0.00 0.03 24 1010.0
20260507121745 57 356 4.3 9.6 0.00 0.00 0.03 20 1011.0
20260507121240 57 5 6.1 10.4 0.00 0.00 0.03 17 1011.0
20260507120739 57 358 5.2 9.6 0.00 0.00 0.03 17 1011.0
20260507120240 57 0 7.0 10.4 0.00 0.00 0.03 16 1011.0
20260507115739 57 355 5.2 8.7 0.00 0.00 0.03 17 1011.0
20260507115241 58 350 6.1 11.3 0.00 0.00 0.03 17 1011.0
20260507114740 58 346 5.2 11.3 0.00 0.00 0.03 17 1011.0
20260507114240 58 344 7.0 12.2 0.00 0.00 0.03 16 1011.0
20260507113740 58 331 8.7 13.9 0.00 0.00 0.03 16 1011.0
20260507113239 57 0 6.1 10.4 0.00 0.00 0.03 17 1011.0
20260507112741 57 3 5.2 7.0 0.00 0.00 0.03 19 1010.0
20260507112239 58 350 5.2 8.7 0.00 0.00 0.03 18 1010.0
20260507111739 58 6 4.3 7.8 0.00 0.00 0.03 20 1010.0
20260507111241 58 355 3.5 5.2 0.00 0.00 0.03 23 1009.0
20260507110739 58 354 7.0 10.4 0.00 0.00 0.03 20 1009.0
20260507110239 57 353 6.1 10.4 0.00 0.00 0.03 21 1009.0
20260507105739 57 338 4.3 7.8 0.00 0.00 0.03 21 1009.0
20260507105239 57 9 5.2 9.6 0.00 0.00 0.03 20 1009.0
20260507104740 57 5 8.7 14.8 0.00 0.00 0.03 21 1009.0
20260507104239 57 7 6.1 9.6 0.00 0.00 0.03 23 1008.0
20260507103739 57 2 7.8 12.2 0.00 0.00 0.03 24 1008.0
20260507103240 57 6 7.8 11.3 0.00 0.00 0.03 25 1008.0
20260507102739 57 3 7.0 10.4 0.00 0.00 0.03 25 1009.0
20260507102239 56 339 7.0 10.4 0.00 0.00 0.03 28 1008.0
20260507101741 56 325 1.7 6.1 0.00 0.00 0.03 30 1008.0
20260507101239 56 351 7.8 12.2 0.00 0.00 0.03 29 1008.0
20260507100740 55 350 7.8 12.2 0.00 0.00 0.03 32 1007.0
20260507100240 54 358 5.2 9.6 0.00 0.00 0.03 40 1008.0
20260507095740 54 357 1.7 3.5 0.00 0.00 0.03 53 1008.0
20260507095239 53 329 3.5 7.8 0.00 0.00 0.03 53 1009.0
20260507094739 53 296 1.7 3.5 0.00 0.00 0.03 63 1009.0
20260507094239 53 336 2.6 5.2 0.00 0.00 0.03 64 1009.0
20260507093745 53 277 3.5 4.3 0.00 0.00 0.03 63 1009.0
20260507093239 53 316 2.6 3.5 0.00 0.00 0.03 64 1009.0
20260507092740 52 10 3.5 8.7 0.00 0.00 0.03 64 1009.0
20260507092240 52 59 2.6 3.5 0.01 0.00 0.03 71 1009.0
20260507091740 52 20 0.9 0.9 0.01 0.00 0.03 75 1009.0
20260507091239 52 359 2.6 3.5 0.00 0.00 0.03 73 1009.0
20260507090739 53 37 1.7 2.6 0.00 0.00 0.03 72 1009.0
20260507090240 52 255 1.7 2.6 0.00 0.00 0.03 69 1009.0
20260507085739 52 273 2.6 3.5 0.00 0.00 0.03 71 1009.0
20260507085239 52 260 1.7 2.6 0.00 0.00 0.03 71 1009.0
20260507084739 52 299 4.3 7.0 0.01 0.00 0.03 70 1010.0
20260507084244 53 334 1.7 2.6 0.00 0.00 0.03 70 1010.0
20260507083739 54 346 3.5 7.0 0.16 0.00 0.03 62 1010.0
20260507083243 53 336 1.7 6.1 0.00 0.00 0.02 63 1010.0
20260507082739 54 3 0.9 1.7 0.00 0.00 0.02 70 1010.0
20260507082240 55 268 0.0 0.0 0.00 0.00 0.02 69 1009.0
20260507081740 55 319 0.0 0.9 0.00 0.00 0.02 62 1009.0
20260507081239 55 259 0.9 1.7 0.00 0.00 0.02 57 1009.0
20260507080740 55 125 1.7 3.5 0.00 0.00 0.02 56 1009.0
20260507080240 55 184 1.7 3.5 0.00 0.00 0.02 52 1008.0
20260507075739 55 68 0.9 4.3 0.00 0.00 0.02 57 1008.0
20260507075239 55 269 3.5 5.2 0.00 0.00 0.02 50 1008.0
20260507074739 54 279 3.5 5.2 0.00 0.00 0.02 53 1008.0
20260507074239 53 263 0.9 4.3 0.00 0.00 0.02 63 1008.0
20260507073739 52 137 0.9 2.6 0.00 0.00 0.02 69 1008.0
20260507073239 52 155 0.9 1.7 0.00 0.00 0.02 68 1008.0
20260507072739 52 287 2.6 6.1 0.00 0.00 0.02 74 1008.0
20260507072240 52 302 2.6 4.3 0.00 0.00 0.02 70 1008.0
20260507071740 52 302 1.7 3.5 0.00 0.00 0.02 71 1008.0
20260507071239 52 349 0.0 1.7 0.00 0.00 0.02 82 1008.0
20260507070739 53 281 1.7 2.6 0.00 0.00 0.02 83 1008.0
20260507070239 54 36 0.9 1.7 0.00 0.00 0.02 81 1008.0
20260507065739 54 201 0.0 1.7 0.00 0.00 0.02 80 1008.0
20260507065239 54 280 0.0 0.9 0.00 0.00 0.02 84 1008.0
20260507064740 54 230 0.9 1.7 0.00 0.00 0.02 90 1008.0
20260507064240 54 27 0.0 0.9 0.00 0.00 0.02 89 1008.0
20260507063739 54 198 0.9 0.9 0.00 0.00 0.02 87 1008.0
20260507063240 54 203 0.9 1.7 0.00 0.00 0.02 88 1008.0
20260507062739 54 200 1.7 2.6 0.00 0.00 0.02 89 1008.0
20260507062239 54 18 0.0 0.9 0.00 0.00 0.02 88 1008.0
20260507061739 54 277 0.0 0.9 0.00 0.00 0.02 87 1008.0
20260507061240 54 85 0.0 0.9 0.00 0.00 0.02 87 1008.0
20260507060739 54 337 0.0 0.9 0.00 0.00 0.02 91 1008.0
20260507060239 54 32 0.0 1.7 0.00 0.00 0.02 91 1008.0
20260507055739 55 240 1.7 2.6 0.00 0.00 0.02 92 1008.0
20260507055239 55 343 0.0 0.9 0.00 0.00 0.02 92 1008.0
20260507054739 55 267 0.0 0.9 0.00 0.00 0.02 93 1008.0
20260507054239 55 67 0.9 1.7 0.00 0.00 0.02 93 1008.0
20260507053739 55 123 0.0 1.7 0.00 0.00 0.02 93 1008.0
20260507053240 55 232 1.7 2.6 0.00 0.00 0.02 93 1008.0
20260507052739 55 66 0.0 1.7 0.00 0.00 0.02 93 1008.0
20260507052240 55 204 0.9 0.9 0.00 0.00 0.02 93 1008.0
20260507051739 55 284 0.9 1.7 0.00 0.00 0.02 93 1008.0
20260507051239 55 338 0.9 1.7 0.00 0.00 0.02 93 1008.0
20260507050739 55 318 0.9 1.7 0.00 0.00 0.02 93 1008.0
20260507050239 55 33 0.0 0.9 0.00 0.00 0.02 92 1008.0
20260507045740 56 338 0.9 1.7 0.00 0.00 0.02 92 1008.0
20260507045239 56 278 1.7 2.6 0.00 0.00 0.02 92 1008.0
20260507044739 56 0 0.0 0.0 0.00 0.00 0.02 92 1008.0
20260507044240 56 0 0.0 0.0 0.00 0.00 0.02 91 1008.0
20260507043740 56 289 0.0 0.9 0.00 0.00 0.02 91 1008.0
20260507043243 57 287 0.9 1.7 0.00 0.00 0.02 91 1008.0
20260507042739 57 70 0.0 0.0 0.00 0.00 0.02 91 1008.0
20260507042239 57 208 1.7 2.6 0.00 0.00 0.02 91 1008.0
20260507041739 57 269 0.0 1.7 0.00 0.00 0.02 91 1008.0
20260507041239 57 274 0.9 1.7 0.00 0.00 0.02 90 1008.0
20260507040739 57 294 1.7 2.6 0.00 0.00 0.02 89 1008.0
20260507040241 58 250 0.0 0.9 0.00 0.00 0.02 89 1008.0
20260507035739 58 258 0.9 1.7 0.00 0.00 0.02 89 1008.0
20260507035240 58 308 0.0 0.9 0.00 0.00 0.02 89 1008.0
20260507034739 58 333 0.0 0.9 0.00 0.00 0.02 87 1008.0
20260507033922 58 0 0.0 0.0 0.00 0.00 0.02 84 1008.0
20260507033240 58 131 0.0 0.9 0.00 0.00 0.02 87 1008.0
20260507032739 58 123 0.9 2.6 0.00 0.00 0.02 89 1008.0
20260507032240 59 355 0.0 0.9 0.00 0.00 0.02 87 1008.0
20260507031743 59 59 0.0 0.9 0.00 0.00 0.02 84 1008.0
20260507031239 60 183 1.7 2.6 0.00 0.00 0.02 81 1008.0
20260507030739 61 347 1.7 3.5 0.03 0.00 0.02 79 1008.0
20260507030240 63 304 4.3 7.0 0.45 0.00 0.01 76 1008.0
20260507025740 64 164 1.7 2.6 1.34 0.00 0.03 68 1008.0
20260507025239 64 0 2.6 5.2 0.00 0.00 0.00 70 1009.0
20260507024740 64 6 2.6 7.0 0.00 0.00 0.00 87 1008.0
20260507024239 65 351 0.9 1.7 0.00 0.00 0.00 85 1008.0
20260507023740 65 39 0.0 1.7 0.00 0.00 0.00 85 1007.0
20260507022750 64 215 0.0 0.9 0.00 0.00 0.00 87 1007.0
20260507022239 64 328 0.9 0.9 0.00 0.00 0.00 88 1007.0
20260507021740 64 333 0.9 1.7 0.00 0.00 0.00 87 1007.0
20260507021240 65 330 0.9 1.7 0.00 0.00 0.00 86 1007.0
20260507020739 65 326 0.0 0.9 0.00 0.00 0.00 86 1007.0
20260507020239 65 319 0.0 1.7 0.00 0.00 0.00 87 1008.0
20260507015741 65 342 0.9 1.7 0.00 0.00 0.00 86 1008.0
20260507015240 65 317 0.9 0.9 0.00 0.00 0.00 86 1008.0
20260507014740 65 285 0.0 1.7 0.00 0.00 0.00 86 1008.0
20260507014240 64 269 0.0 0.9 0.00 0.00 0.00 86 1008.0
20260507013739 64 326 0.0 0.9 0.00 0.00 0.00 86 1008.0
20260507013240 64 329 0.0 0.9 0.00 0.00 0.00 86 1008.0
20260507012740 64 57 0.0 0.9 0.00 0.00 0.00 86 1008.0
20260507012240 64 194 0.9 1.7 0.00 0.00 0.00 86 1008.0
20260507011739 64 165 0.0 0.9 0.00 0.00 0.00 86 1008.0
20260507011240 64 275 0.0 0.9 0.00 0.00 0.00 86 1008.0
20260507010739 64 284 0.0 0.9 0.00 0.00 0.00 86 1008.0
20260507010240 64 300 0.0 0.9 0.00 0.00 0.00 87 1008.0
20260507005740 64 301 1.7 1.7 0.00 0.00 0.00 86 1008.0
20260507005240 64 332 0.9 0.9 0.00 0.00 0.00 86 1008.0
20260507004739 64 331 0.9 1.7 0.00 0.00 0.00 86 1008.0
20260507004240 64 331 0.9 1.7 0.00 0.00 0.00 85 1008.0
20260507003739 64 321 0.0 0.9 0.00 0.00 0.00 85 1008.0
20260507003239 64 305 0.9 1.7 0.00 0.00 0.00 85 1008.0
20260507002739 64 350 0.9 1.7 0.00 0.00 0.00 85 1008.0
20260507002240 64 296 0.9 1.7 0.00 0.00 0.00 85 1008.0
20260507001739 64 347 0.0 0.0 0.00 0.00 0.00 85 1008.0
20260507001240 64 125 0.0 0.9 0.00 0.00 0.00 85 1008.0
20260507000739 64 292 1.7 1.7 0.00 0.00 0.00 86 1008.0
20260507000240 64 337 0.0 0.9 0.00 0.00 0.00 85 1008.0
20260506235739 64 352 0.9 0.9 0.00 0.00 0.00 85 1008.0
20260506235239 64 317 0.0 0.9 0.00 0.00 0.00 85 1008.0
20260506234739 64 329 0.0 0.9 0.00 0.00 0.00 85 1008.0
20260506234239 64 322 0.9 0.9 0.00 0.00 0.00 85 1008.0
20260506233740 64 288 0.9 1.7 0.00 0.00 0.00 84 1008.0
20260506233239 64 323 0.0 0.9 0.00 0.00 0.00 84 1008.0
20260506232739 64 328 0.0 0.9 0.00 0.00 0.00 84 1008.0
20260506232240 64 260 0.9 1.7 0.00 0.00 0.00 84 1007.0
20260506231739 64 208 0.0 0.9 0.00 0.00 0.00 84 1007.0
20260506231239 65 336 0.0 0.9 0.00 0.00 0.00 84 1007.0
20260506230739 65 339 0.9 2.6 0.00 0.00 0.00 84 1007.0
20260506230243 65 345 0.0 0.9 0.00 0.00 0.00 82 1007.0
20260506225739 66 4 0.0 1.7 0.00 0.00 0.00 80 1007.0
20260506225239 66 83 0.0 0.9 0.00 0.00 0.00 80 1007.0
20260506224739 67 162 0.9 1.7 0.00 0.00 0.00 80 1007.0
20260506224240 68 189 0.9 1.7 0.00 0.00 0.00 77 1007.0
20260506223740 68 296 0.0 1.7 0.00 0.00 0.00 77 1007.0
20260506223240 68 315 0.9 1.7 0.00 0.00 0.00 76 1007.0
20260506222748 68 305 1.7 1.7 0.00 0.00 0.00 76 1007.0
20260506222240 69 285 1.7 2.6 0.00 0.00 0.00 76 1007.0
20260506221739 69 311 0.9 1.7 0.00 0.00 0.00 75 1007.0
20260506221239 69 297 0.9 1.7 0.00 0.00 0.00 76 1007.0
20260506220744 69 24 0.0 0.9 0.00 0.00 0.00 76 1007.0
20260506220239 69 329 0.9 1.7 0.00 0.00 0.00 74 1006.0
20260506215739 70 335 0.9 1.7 0.00 0.00 0.00 73 1006.0
20260506215239 70 305 1.7 1.7 0.00 0.00 0.00 72 1006.0
20260506214741 71 350 0.0 0.9 0.00 0.00 0.00 71 1006.0
20260506214240 71 333 1.7 2.6 0.00 0.00 0.00 70 1006.0
20260506213740 72 324 1.7 1.7 0.00 0.00 0.00 69 1006.0
20260506213239 73 354 1.7 2.6 0.00 0.00 0.00 67 1005.0
20260506212739 74 341 1.7 3.5 0.00 0.00 0.00 66 1005.0
20260506212239 74 339 1.7 3.5 0.00 0.00 0.00 64 1005.0
20260506211739 75 9 0.9 2.6 0.00 0.00 0.00 57 1005.0
20260506211240 76 354 0.0 0.9 0.00 0.00 0.00 52 1005.0
20260506210739 77 353 0.0 0.9 0.00 0.00 0.00 51 1005.0
20260506210239 78 20 0.0 0.9 0.00 0.00 0.00 49 1005.0
20260506205739 78 286 0.0 0.9 0.00 0.00 0.00 47 1005.0
20260506205239 79 3 0.0 0.9 0.00 0.00 0.00 46 1005.0
20260506204740 80 126 1.7 3.5 0.00 0.00 0.00 43 1005.0
20260506204239 80 143 1.7 2.6 0.00 0.00 0.00 42 1005.0
20260506203740 81 139 0.9 2.6 0.00 0.00 0.00 41 1005.0
20260506203239 82 135 1.7 3.5 0.00 0.00 0.00 38 1005.0
20260506202739 82 85 0.9 1.7 0.00 0.00 0.00 38 1005.0
20260506202239 82 142 1.7 2.6 0.00 0.00 0.00 38 1005.0
20260506201740 83 132 0.9 1.7 0.00 0.00 0.00 37 1005.0
20260506201239 83 51 0.9 1.7 0.00 0.00 0.00 36 1005.0
20260506200739 83 234 0.9 1.7 0.00 0.00 0.00 36 1005.0
20260506200239 83 75 1.7 2.6 0.00 0.00 0.00 36 1005.0
20260506195739 84 137 0.9 1.7 0.00 0.00 0.00 36 1005.0
20260506195239 84 24 0.9 2.6 0.00 0.00 0.00 34 1005.0
20260506194739 84 312 0.9 1.7 0.00 0.00 0.00 35 1005.0
20260506194240 84 349 0.9 1.7 0.00 0.00 0.00 34 1005.0
20260506193740 84 50 0.9 1.7 0.00 0.00 0.00 34 1005.0
20260506193239 84 160 1.7 3.5 0.00 0.00 0.00 34 1005.0
20260506192739 85 142 1.7 4.3 0.00 0.00 0.00 32 1005.0
20260506192239 84 255 0.9 1.7 0.00 0.00 0.00 37 1005.0
20260506191739 83 45 0.9 2.6 0.00 0.00 0.00 35 1005.0
20260506191241 83 280 0.9 1.7 0.00 0.00 0.00 36 1005.0
20260506190739 82 151 1.7 2.6 0.00 0.00 0.00 39 1005.0
20260506190240 83 141 1.7 5.2 0.00 0.00 0.00 37 1005.0
20260506185739 82 217 0.0 1.7 0.00 0.00 0.00 41 1005.0
20260506185240 82 288 0.9 2.6 0.00 0.00 0.00 41 1005.0
20260506184740 82 124 2.6 3.5 0.00 0.00 0.00 40 1005.0
20260506184240 82 125 2.6 5.2 0.00 0.00 0.00 39 1005.0
20260506183740 82 105 1.7 3.5 0.00 0.00 0.00 40 1005.0
20260506183239 82 227 1.7 3.5 0.00 0.00 0.00 42 1006.0
20260506182740 82 231 0.9 1.7 0.00 0.00 0.00 41 1006.0
20260506182240 82 81 1.7 3.5 0.00 0.00 0.00 41 1006.0
20260506181739 82 249 1.7 3.5 0.00 0.00 0.00 42 1006.0
20260506181239 82 90 0.9 1.7 0.00 0.00 0.00 42 1006.0
20260506180739 82 350 1.7 2.6 0.00 0.00 0.00 43 1006.0
20260506180243 82 153 1.7 3.5 0.00 0.00 0.00 41 1006.0
20260506175740 82 319 0.9 1.7 0.00 0.00 0.00 42 1006.0
20260506175240 82 72 0.9 1.7 0.00 0.00 0.00 47 1007.0
20260506174739 81 303 0.9 2.6 0.00 0.00 0.00 44 1007.0
20260506174240 81 57 1.7 3.5 0.00 0.00 0.00 42 1007.0
20260506173739 81 86 1.7 3.5 0.00 0.00 0.00 44 1007.0
20260506173240 81 135 3.5 7.0 0.00 0.00 0.00 43 1007.0
20260506172739 81 142 1.7 4.3 0.00 0.00 0.00 44 1007.0
20260506172240 81 131 2.6 3.5 0.00 0.00 0.00 43 1007.0
20260506171739 82 91 1.7 3.5 0.00 0.00 0.00 43 1007.0
20260506171240 82 200 0.9 1.7 0.00 0.00 0.00 45 1007.0
20260506170740 81 47 1.7 4.3 0.00 0.00 0.00 47 1007.0